Live-Position
3D-Globus wird geladen...
Über Starlink 33763
Group: 3 satellites
Beschreibung wird geladen...
Nächste Überflüge
Passes for default location (London). Set your location on the main map for personalized predictions.
Höhenverlauf
Loading altitude history...
No altitude history available
Zweizeiliger Elementsatz
1 63452U 25069V 26124.49465613 .00056901 00000-0 13063-2 0 9991
2 63452 53.1596 242.1928 0000900 88.4786 271.6323 15.42182363 61960
Epoch: 4. Mai 2026 •
Age: 5 hours
Aktueller Status
Höhe 439.7 km
Geschwindigkeit 7.65 km/s
Subsatellitenpunkt 9.33°N,
67.47°W
Startdatum 4. Apr. 2025
Alter 1 years
Typ internet
Startgruppe
Falcon 9 •
Group 11-13 •
27 satellites
Starlink 33682
63433
Starlink 33710 63434
Starlink 33733 63435
Starlink 33638 63436
Starlink 33726 63437
Starlink 33681 63438
Starlink 33730 63439
Starlink 33743 63440
Starlink 33715 63441
Starlink 33762 63442
Starlink 33753 63443
Starlink 33747 63444
Starlink 33659 63445
Starlink 33746 63446
Starlink 33799 63447
Starlink 33797 63448
Starlink 33798 63449
Starlink 33736 63450
Starlink 33740 63451
Starlink 33784 63453
...and 6 more
Technische Details
Klassifizierung Payload
Masse 575.00 kg
Trockenmasse 530.00 kg
Gesamtmasse 575.00 kg
Länge 0.30 m
Durchmesser 4.10 m
Spannweite 29.00 m
Form Box + pan
Hersteller SPXS
Bus-Typ Starlink V2MO
Phasenstatus In Orbit
Besitzer/Staat SPXS/US
Most Searched
Loading...